Wind_Speed
11 16 16 19 19 19 20 20 20 21 21 21 21 23 24 23 21 19 17 17 17 18 17 17 14 11 11 11 11 10 9 9 7 6 6 7 5 5 7 9 9 9 9
13 18 17 18 19 19 20 21 22 22 21 21 21 23 23 24 22 21 21 20 21 21 19 17 15 12 10 10 10 10 9 6 6 4 6 7 3 2 1 10 9 9 8
14 18 17 18 19 19 21 23 23 22 21 21 21 21 20 21 20 22 21 21 22 20 18 17 17 15 13 11 10 12 13 11 7 7 9 8 8 6 3 6 5 1 6
16 18 18 17 19 20 22 23 23 21 19 19 19 18 19 17 16 18 20 21 20 19 17 16 16 18 16 13 11 15 15 12 10 11 10 8 9 11 9 5 5 7 6
18 20 19 18 19 21 22 23 22 20 18 17 17 19 17 15 17 19 18 19 17 16 16 13 15 12 13 13 12 11 12 15 13 11 8 8 10 9 11 10 6 9 4
17 20 19 18 19 21 22 20 19 17 16 15 15 16 16 16 18 18 18 18 18 17 13 11 10 11 9 7 8 8 8 8 12 11 8 7 9 9 7 11 11 14 12
15 20 19 19 19 20 20 18 16 14 14 13 14 14 15 18 18 19 19 18 18 17 14 12 12 11 10 12 9 11 12 11 11 10 9 8 7 8 9 13 10 9 9
13 18 21 20 18 17 17 16 15 14 14 13 14 15 16 18 19 18 17 18 17 18 16 15 14 15 11 11 13 17 16 14 14 10 12 13 11 10 12 12 11 9 8
12 15 18 20 19 17 15 14 14 14 13 12 14 14 15 16 18 17 17 16 18 17 18 18 12 16 16 15 16 14 13 10 15 18 13 13 11 14 15 14 12 9 6
11 12 15 18 18 16 15 13 13 11 11 11 14 14 13 13 16 16 15 14 16 17 15 15 15 13 14 12 12 13 15 15 14 17 16 14 11 7 11 15 11 10 10
11 12 14 14 16 15 15 13 13 11 10 11 13 13 13 13 14 15 13 14 15 17 14 10 11 12 13 13 11 11 13 13 16 17 16 15 14 16 18 14 14 11 10
11 12 13 13 12 12 13 13 12 10 9 8 9 11 12 12 13 12 11 13 14 15 14 14 11 12 10 11 12 13 13 12 14 13 15 17 14 12 12 12 13 11 10
10 11 13 13 11 10 10 11 10 9 8 7 7 8 10 11 11 10 10 12 11 12 13 12 12 10 11 11 11 13 13 12 13 13 14 14 14 15 15 13 11 9 9
8 11 12 11 10 9 10 9 9 8 7 5 4 3 9 8 10 8 8 9 10 12 11 12 11 8 8 9 9 11 12 11 13 13 14 15 15 15 15 16 15 13 11
6 10 11 12 11 9 7 7 6 6 7 3 2 1 5 5 7 5 4 8 6 7 8 8 9 6 6 8 8 9 11 9 10 10 12 15 15 16 15 15 16 15 14
7 9 12 12 11 10 8 5 4 5 4 2 1 3 3 3 4 3 4 5 4 3 5 4 7 8 8 6 5 6 8 7 8 10 11 11 12 13 14 15 16 17 17
6 9 12 11 10 9 8 6 5 2 2 1 3 4 3 2 2 1 4 3 4 1 2 4 4 6 10 7 7 5 3 2 6 7 7 8 10 12 12 13 14 14 14
6 8 11 11 11 10 9 7 5 3 2 3 5 6 6 2 1 5 8 6 7 5 2 3 2 3 5 6 7 6 4 3 1 2 3 5 6 9 10 11 11 12 13
9 9 12 12 12 11 9 8 8 7 5 5 6 7 7 6 3 7 10 9 9 8 5 2 3 4 3 4 7 7 6 6 3 1 2 4 7 8 10 12 14 16 17
11 10 10 11 11 10 9 7 6 7 6 7 9 10 9 8 7 11 11 11 12 10 5 6 3 3 3 4 9 10 9 8 5 5 5 8 9 9 10 14 14 15 16
15 14 12 11 11 11 10 9 9 10 10 11 11 11 12 11 10 11 10 12 13 11 9 5 7 6 4 5 9 10 9 9 8 6 6 9 9 9 10 14 12 19 22
16 17 16 14 12 11 9 9 10 11 11 12 12 13 15 13 12 11 12 14 12 11 11 8 6 5 7 6 7 7 5 8 10 10 9 12 10 9 11 13 16 17 22
20 18 17 15 14 13 12 11 10 10 12 12 14 15 15 14 14 13 12 13 12 12 12 9 8 5 7 9 6 3 2 4 7 9 9 9 5 8 11 10 14 17 20
21 20 18 17 17 15 12 11 10 10 12 13 14 16 14 14 15 13 12 11 11 11 11 12 9 7 8 11 8 5 4 5 5 6 0 3 7 9 11 10 13 15 17
23 21 20 18 17 15 13 12 11 12 13 14 15 16 15 12 13 12 11 10 11 13 12 12 10 9 10 10 8 3 4 4 4 5 4 2 8 13 12 9 11 15 14
25 24 21 18 17 15 16 15 14 14 16 16 17 17 14 11 12 13 12 13 13 13 13 13 12 11 9 8 7 4 6 6 6 6 4 7 8 11 11 12 15 11 13
Wind_Direction
91 99 101 100 103 100 100 99 94 89 88 84 78 74 69 66 65 70 73 71 67 65 66 65 64 72 86 92 94 99 99 104 106 104 130 135 131 130 162 158 174 174 182
98 97 103 102 101 102 102 97 95 94 90 85 78 73 67 67 67 72 71 70 67 65 63 62 62 72 94 95 93 83 77 92 104 87 70 124 70 101 306 168 151 175 187
99 99 101 101 102 101 99 98 98 95 87 80 78 73 74 71 67 67 67 65 64 65 62 63 59 63 81 92 86 80 75 73 97 95 81 89 66 69 62 206 347 307 261
101 99 99 102 101 100 99 96 96 93 88 83 82 83 82 73 63 65 66 65 61 57 55 56 58 65 73 78 71 83 69 75 91 92 95 82 66 70 69 51 340 328 251
106 98 100 101 101 101 99 98 95 90 83 80 87 87 79 73 71 69 69 64 62 60 57 56 59 59 68 75 86 85 67 77 85 83 70 48 50 59 71 44 21 23 97
110 100 98 100 102 102 100 99 94 90 84 79 86 86 86 83 72 68 68 67 62 57 55 47 42 43 72 78 81 94 80 74 89 87 66 44 37 47 57 51 58 72 62
111 111 108 108 105 102 101 99 95 90 84 83 85 85 85 79 74 68 65 61 61 52 45 44 48 51 50 56 67 79 90 83 82 78 54 30 31 53 52 60 56 57 56
113 118 120 115 109 103 100 102 100 93 89 88 88 88 86 82 75 70 65 62 61 58 56 50 44 44 66 72 83 83 77 67 50 51 48 43 40 51 59 63 68 76 59
118 122 126 119 108 102 100 97 93 91 90 92 90 88 81 80 80 75 64 64 62 55 58 59 66 63 78 92 93 69 46 55 31 27 34 57 69 64 53 47 50 57 34
124 124 130 123 112 107 106 101 95 91 90 89 86 81 78 87 87 74 67 65 65 61 61 61 80 94 77 89 83 54 55 60 45 37 38 56 62 60 56 43 34 30 40
133 134 135 128 119 117 117 111 102 100 93 90 83 83 89 84 81 74 70 66 60 61 59 60 76 87 91 87 74 70 64 51 51 43 41 49 54 47 52 46 41 39 38
140 141 140 133 124 121 124 120 114 108 96 88 87 89 90 87 80 66 68 62 61 66 64 75 72 106 94 88 81 72 65 56 53 45 44 50 49 45 47 52 43 41 36
149 149 147 141 130 126 131 128 120 111 101 96 92 87 93 89 82 73 72 58 58 66 70 77 85 95 89 85 79 83 72 61 59 49 48 46 51 54 53 45 40 39 32
165 160 160 153 143 136 136 138 133 116 108 111 119 99 94 96 89 71 57 56 50 64 68 79 84 100 110 100 97 95 86 75 71 59 54 50 46 47 48 43 37 30 26
176 177 172 167 159 154 152 153 145 125 124 132 190 180 100 100 102 89 56 65 46 55 68 90 88 109 123 117 118 111 101 86 76 64 54 54 54 51 49 48 45 41 35
182 186 188 178 168 164 160 169 169 138 127 149 321 10 62 83 101 88 97 35 17 42 48 75 90 119 150 143 156 143 125 118 94 70 54 44 39 42 38 36 32 29 25
183 186 188 190 180 180 175 181 195 176 149 131 267 309 323 86 89 238 257 286 284 324 360 55 108 112 153 177 181 175 137 131 94 73 53 44 32 28 28 19 18 16 13
210 191 189 189 191 195 201 206 214 221 215 211 261 281 303 298 217 259 272 267 261 259 290 68 81 138 161 197 192 196 199 245 114 57 29 41 37 27 18 13 7 1 1
212 201 189 195 198 199 203 206 212 225 237 248 260 272 279 285 249 266 264 266 253 259 264 218 177 144 185 223 227 228 233 245 258 326 324 343 2 8 355 359 356 352 347
210 209 206 198 206 205 212 219 234 245 252 250 256 263 256 257 265 260 271 268 259 255 250 274 272 207 168 263 240 239 242 247 240 263 323 326 328 340 351 3 352 358 355
213 209 208 210 209 213 217 215 225 244 251 251 247 256 267 261 241 252 258 254 260 264 278 269 280 247 277 224 233 245 244 253 263 259 290 297 316 341 357 22 18 3 5
213 204 196 200 206 212 222 229 234 240 248 260 264 262 258 257 253 244 237 252 254 265 275 272 286 249 289 248 233 252 253 263 273 279 278 290 298 329 351 1 5 8 5
204 211 200 199 201 205 210 224 237 255 266 269 268 265 261 262 257 244 242 253 259 270 272 275 280 267 267 242 245 257 264 258 271 273 284 296 334 338 341 342 0 5 7
213 209 209 204 210 212 221 236 252 272 280 283 280 275 261 258 253 243 242 248 262 265 272 280 277 263 238 241 236 224 198 213 237 227 14 315 332 316 313 317 354 4 1
224 218 213 214 219 227 233 239 253 269 277 279 279 278 266 260 266 253 249 245 249 262 266 273 264 244 238 253 257 198 177 190 207 220 243 284 291 307 305 281 316 349 358
227 230 222 224 231 236 248 257 265 274 280 282 286 286 281 273 280 279 272 261 277 270 261 255 261 256 255 260 245 197 186 180 212 242 254 267 298 281 327 326 325 336 349
Height
5910 5909 5910 5909 5910 5910 5911 5912 5913 5913 5913 5914 5916 5917 5917 5917 5917 5917 5917 5917 5917 5917 5917 5916 5916 5915 5915 5914 5914 5914 5913 5913 5912 5912 5912 5911 5910 5909 5909 5909 5910 5910 5910
5912 5912 5912 5912 5912 5913 5914 5915 5916 5917 5917 5919 5921 5921 5920 5920 5920 5919 5919 5919 5919 5918 5918 5917 5917 5915 5915 5915 5915 5915 5914 5913 5913 5912 5910 5910 5910 5910 5909 5909 5909 5910 5910
5914 5914 5915 5915 5915 5917 5917 5917 5919 5919 5921 5922 5924 5923 5923 5922 5923 5922 5922 5922 5922 5920 5920 5919 5918 5917 5916 5916 5915 5915 5915 5913 5913 5912 5911 5911 5911 5910 5910 5910 5909 5909 5909
5917 5917 5917 5918 5918 5919 5919 5920 5921 5922 5924 5925 5925 5925 5925 5925 5926 5925 5925 5924 5923 5922 5921 5920 5919 5919 5918 5917 5917 5917 5916 5914 5914 5914 5914 5913 5912 5912 5911 5911 5909 5908 5906
5919 5920 5920 5920 5920 5921 5922 5922 5923 5924 5925 5927 5927 5927 5927 5927 5927 5927 5926 5926 5925 5923 5923 5921 5920 5919 5919 5919 5918 5917 5917 5916 5915 5916 5916 5914 5914 5912 5912 5911 5908 5907 5906
5922 5922 5921 5922 5923 5924 5924 5925 5925 5926 5928 5929 5929 5928 5928 5929 5928 5928 5927 5927 5926 5925 5924 5922 5921 5920 5919 5918 5919 5918 5917 5917 5916 5916 5916 5914 5913 5912 5911 5911 5909 5908 5908
5925 5924 5923 5924 5926 5927 5927 5927 5928 5929 5930 5931 5931 5931 5930 5930 5930 5929 5928 5927 5927 5926 5925 5923 5921 5921 5920 5920 5919 5920 5920 5919 5919 5918 5917 5915 5914 5912 5912 5911 5911 5909 5909
5928 5926 5924 5926 5928 5929 5930 5929 5930 5930 5931 5931 5932 5933 5932 5932 5932 5931 5930 5929 5929 5928 5926 5924 5923 5923 5923 5922 5922 5922 5921 5921 5920 5918 5917 5917 5916 5914 5912 5910 5909 5910 5910
5930 5929 5927 5927 5929 5931 5932 5932 5932 5932 5932 5933 5934 5934 5934 5934 5934 5932 5931 5931 5931 5930 5928 5926 5924 5925 5924 5924 5924 5924 5923 5922 5921 5919 5918 5918 5917 5915 5913 5912 5910 5908 5908
5931 5931 5929 5929 5930 5932 5933 5933 5934 5935 5934 5935 5936 5936 5936 5936 5936 5934 5934 5933 5932 5930 5929 5928 5927 5927 5927 5928 5927 5926 5925 5924 5922 5920 5920 5918 5919 5917 5915 5914 5913 5911 5909
5932 5932 5931 5931 5932 5933 5933 5934 5935 5936 5937 5937 5937 5937 5937 5938 5938 5937 5936 5935 5933 5932 5931 5931 5930 5930 5930 5929 5929 5928 5926 5925 5923 5921 5921 5919 5918 5917 5916 5915 5914 5912 5910
5934 5933 5933 5933 5934 5934 5935 5935 5936 5938 5938 5938 5938 5938 5938 5939 5939 5939 5938 5937 5936 5935 5934 5933 5932 5933 5933 5932 5930 5930 5929 5927 5925 5925 5923 5922 5919 5918 5917 5917 5916 5915 5913
5935 5934 5934 5934 5935 5936 5937 5937 5937 5938 5939 5939 5938 5939 5939 5939 5940 5940 5940 5939 5939 5938 5936 5935 5935 5934 5934 5934 5932 5931 5930 5930 5928 5927 5926 5925 5923 5920 5919 5918 5917 5916 5915
5935 5935 5935 5935 5936 5936 5937 5938 5938 5939 5940 5940 5939 5939 5940 5941 5941 5941 5940 5940 5940 5939 5938 5937 5936 5936 5935 5934 5934 5933 5933 5933 5931 5930 5929 5928 5927 5925 5922 5921 5920 5918 5916
5935 5935 5935 5936 5936 5936 5937 5938 5939 5939 5940 5940 5939 5940 5941 5942 5942 5941 5940 5941 5940 5939 5939 5938 5937 5936 5936 5936 5936 5935 5935 5935 5933 5932 5932 5930 5929 5928 5925 5923 5922 5920 5916
5934 5935 5935 5936 5936 5936 5937 5938 5939 5939 5940 5940 5940 5940 5940 5941 5942 5941 5941 5940 5941 5939 5939 5938 5937 5936 5937 5937 5937 5937 5936 5936 5935 5934 5933 5932 5930 5928 5927 5925 5922 5920 5918
5934 5934 5935 5936 5936 5936 5937 5937 5938 5938 5939 5939 5939 5939 5940 5940 5940 5940 5940 5940 5940 5939 5939 5938 5937 5936 5936 5936 5936 5937 5937 5937 5936 5934 5933 5932 5931 5929 5928 5927 5924 5922 5920
5933 5934 5934 5935 5935 5935 5936 5937 5937 5938 5938 5939 5939 5938 5940 5940 5940 5939 5938 5939 5938 5938 5939 5938 5937 5936 5934 5935 5935 5936 5937 5938 5936 5934 5934 5933 5932 5931 5929 5928 5926 5924 5921
5931 5932 5933 5934 5934 5935 5935 5936 5936 5937 5938 5938 5937 5937 5938 5938 5939 5938 5937 5938 5936 5936 5938 5937 5937 5936 5935 5935 5935 5935 5936 5937 5936 5935 5935 5934 5933 5932 5929 5928 5925 5922 5918
5929 5930 5931 5932 5933 5934 5934 5934 5934 5935 5936 5937 5936 5935 5935 5935 5935 5936 5936 5935 5934 5934 5937 5937 5936 5936 5935 5935 5936 5935 5936 5936 5936 5935 5934 5934 5933 5931 5929 5926 5922 5919 5915
5927 5928 5928 5930 5931 5933 5934 5933 5934 5935 5934 5935 5934 5933 5932 5932 5932 5931 5932 5932 5932 5933 5934 5936 5936 5935 5934 5933 5935 5935 5935 5934 5935 5935 5934 5933 5932 5930 5928 5925 5922 5918 5914
5927 5925 5926 5927 5929 5931 5932 5933 5933 5934 5933 5933 5932 5932 5930 5929 5928 5929 5931 5931 5931 5932 5933 5933 5934 5933 5932 5932 5933 5933 5933 5933 5933 5933 5933 5932 5930 5929 5926 5923 5920 5915 5912
5924 5926 5925 5927 5928 5929 5929 5931 5932 5932 5931 5930 5930 5929 5928 5927 5927 5927 5928 5929 5929 5929 5930 5930 5930 5930 5930 5930 5930 5930 5929 5928 5929 5930 5930 5929 5928 5926 5923 5920 5918 5915 5912
5923 5925 5925 5925 5926 5927 5929 5930 5929 5928 5928 5928 5928 5927 5926 5924 5925 5925 5926 5927 5927 5927 5926 5926 5926 5927 5927 5928 5927 5926 5925 5925 5927 5928 5927 5926 5924 5921 5919 5918 5916 5913 5911
5921 5921 5923 5924 5924 5926 5925 5926 5925 5925 5925 5925 5925 5925 5925 5923 5924 5924 5925 5924 5925 5924 5924 5924 5923 5924 5924 5925 5925 5925 5925 5925 5925 5924 5923 5922 5920 5918 5916 5915 5914 5911 5909
5919 5920 5920 5921 5922 5922 5922 5922 5922 5923 5923 5924 5925 5925 5925 5924 5925 5924 5923 5924 5923 5922 5921 5921 5923 5923 5924 5924 5923 5923 5922 5922 5921 5920 5920 5920 5919 5916 5915 5912 5910 5909 5907